Regional Weather Roundup
Issued by NWS Bismarck, ND

Home | Current Version | Previous Version | Text Only | Print | Product List | Glossary On
Versions: 1 2 3 4 5 6 7 8 9 10 11 12 13 14 15 16 17 18 19 20 21 22 23 24 25 26 27 28 29 30 31 32 33 34 35 36 37 38 39 40 41 42 43 44 45 46 47 48 49 50
000
ASUS43 KBIS 230320
RWRBIS

NWR BROADCAST TEXT
NATIONAL WEATHER SERVICE BISMARCK ND
1000 PM CDT FRI AUG 22 2014

NOTE: "FAIR" INDICATES FEW OR NO CLOUDS BELOW 12,000 FEET WITH NO
SIGNIFICANT WEATHER AND/OR OBSTRUCTIONS TO VISIBILITY.


CITY           SKY/WX    TMP DP  RH WIND       PRES   REMARKS
WILLISTON      CLOUDY    64  54  69 E12       30.12S
MINOT          CLOUDY    63  59  87 N7        30.13R
MINOT AFB      CLOUDY    63  61  91 NE8       30.13R
BISMARCK       CLOUDY    67  64  90 NE13      30.07R
DICKINSON      CLOUDY    64  61  90 E12       30.08R
GARRISON         N/A     64  60  87 NE8       30.11R
HETTINGER ARPT CLOUDY    67  61  81 E5        30.07R
JAMESTOWN      PTCLDY    64  62  93 NE5       30.07R
BEACH          LGT RAIN  63  63 100 E15       30.10R
CARRINGTON     FAIR      63  63 100 NE7       30.11R
CROSBY         CLOUDY    61  57  88 NE9       30.17R
HARVEY         CLOUDY    64  63  94 NE9       30.12R
HAZEN          CLOUDY    63  59  88 NE8       30.11R
LINTON         MOCLDY    68  66  94 E12       30.06R
MANDAN         CLOUDY    66  63  88 NE10      30.10R
OAKES            N/A     66  66 100 NE9       30.07R
RUGBY          CLOUDY    63  57  82 NE13G18   30.14S
STANLEY        MOCLDY    61  59  94 E12G18    30.15S
TIOGA          CLOUDY    59  59 100 E12       30.17F
WATFORD CITY   CLOUDY    61  57  88 NE10      30.11S
$$

CITY           SKY/WX    TMP DP  RH WIND       PRES   REMARKS
GRAND FORKS    CLOUDY    67  62  84 N13       30.06S
GRAND FORKS AF CLOUDY    66  64  93 N13       30.09R
DEVILS LAKE    CLOUDY    64  55  72 NE13      30.10S
FARGO          CLOUDY    69  65  86 N12       30.04S
CANDO          CLOUDY    63  57  82 NE9G16    30.14R
CAVALIER       CLOUDY    63  59  88 N10       30.11S
GRAFTON        CLOUDY    64  61  88 N12       30.09R
GWINNER        PTCLDY    66  66 100 N8        30.08R
LANGDON        CLOUDY    61  57  88 N12       30.14R
ROLLA          FAIR      55  55 100 NE6       30.18R
WALHALLA         N/A     63  63 100 N9G18     30.12F
$$

CITY           SKY/WX    TMP DP  RH WIND       PRES   REMARKS
ABERDEEN       PTCLDY    69  67  93 NE8       30.02R
MOBRIDGE       PTCLDY    69  66  90 NE8       30.00R
BUFFALO          N/A     67  60  78 E13       29.99S
RAPID CITY     CLOUDY    67  63  87 CALM      30.01S
GLASGOW        CLOUDY    62  53  72 NE18G28   30.10R
SIDNEY         CLOUDY    64  57  77 NE10      30.12R
WOLF POINT     CLOUDY    65  54  67 E12       30.11R
GLENDIVE       CLOUDY    61  59  94 NE16      30.09S
MILES CITY     CLOUDY    63  60  90 NE15      30.02R
BAKER          CLOUDY    65  61  87 E17       30.06R
$$

CITY           SKY/WX    TMP DP  RH WIND       PRES   REMARKS
BILLINGS       LGT RAIN  61  57  87 NE8       30.03R
GREAT FALLS    CLOUDY    52  50  93 N18       30.15R
REGINA         MOCLDY    59  52  77 E9        30.23R
ESTEVAN        CLOUDY    61  55  82 NE8       30.18S
$$



USA.gov is the U.S. government's official web portal to all federal, state and local government web resources and services.